TimeMST,TemperatureF,Dew PointF,Humidity,Sea Level PressureIn,VisibilityMPH,Wind Direction,Wind SpeedMPH,Gust SpeedMPH,PrecipitationIn,Events,Conditions,WindDirDegrees,DateUTC
12:53 AM,77.0,28.9,17,29.80,10.0,Calm,Calm,-,N/A,,Clear,0,2013-05-25 07:53:00
1:53 AM,75.9,28.0,17,29.79,10.0,NNE,3.5,-,N/A,,Clear,30,2013-05-25 08:53:00
2:53 AM,72.0,33.1,24,29.80,10.0,Calm,Calm,-,N/A,,Clear,0,2013-05-25 09:53:00
3:53 AM,72.0,28.9,20,29.81,10.0,Calm,Calm,-,N/A,,Clear,0,2013-05-25 10:53:00
4:53 AM,71.1,30.0,22,29.82,10.0,Calm,Calm,-,N/A,,Clear,0,2013-05-25 11:53:00
5:53 AM,71.1,26.1,19,29.84,10.0,Calm,Calm,-,N/A,,Clear,0,2013-05-25 12:53:00
6:53 AM,73.9,28.0,18,29.86,10.0,Calm,Calm,-,N/A,,Clear,0,2013-05-25 13:53:00
7:53 AM,77.0,25.0,15,29.88,10.0,South,3.5,-,N/A,,Clear,170,2013-05-25 14:53:00
8:53 AM,81.0,24.1,12,29.88,10.0,SE,6.9,-,N/A,,Clear,130,2013-05-25 15:53:00
9:53 AM,84.0,27.0,13,29.88,10.0,SE,6.9,-,N/A,,Clear,130,2013-05-25 16:53:00
10:53 AM,86.0,25.0,11,29.88,10.0,Variable,5.8,-,N/A,,Clear,0,2013-05-25 17:53:00
11:53 AM,88.0,24.1,10,29.87,10.0,South,8.1,-,N/A,,Clear,180,2013-05-25 18:53:00
12:53 PM,90.0,21.9,8,29.85,10.0,SE,8.1,-,N/A,,Clear,140,2013-05-25 19:53:00
1:53 PM,91.0,23.0,8,29.84,10.0,Variable,3.5,-,N/A,,Clear,0,2013-05-25 20:53:00
2:53 PM,93.0,23.0,8,29.82,10.0,Calm,Calm,-,N/A,,Clear,0,2013-05-25 21:53:00
3:53 PM,93.9,21.9,7,29.80,10.0,Calm,Calm,-,N/A,,Clear,0,2013-05-25 22:53:00
4:53 PM,95.0,23.0,8,29.78,10.0,Variable,4.6,-,N/A,,Clear,0,2013-05-25 23:53:00
5:53 PM,93.9,23.0,8,29.76,10.0,Calm,Calm,-,N/A,,Clear,0,2013-05-26 00:53:00
6:53 PM,93.0,23.0,8,29.76,10.0,Calm,Calm,-,N/A,,Clear,0,2013-05-26 01:53:00
7:53 PM,90.0,21.0,8,29.77,10.0,WSW,8.1,-,N/A,,Clear,250,2013-05-26 02:53:00
8:53 PM,88.0,19.0,8,29.78,10.0,WSW,6.9,-,N/A,,Clear,240,2013-05-26 03:53:00
9:53 PM,86.0,17.1,8,29.81,10.0,WSW,5.8,-,N/A,,Clear,250,2013-05-26 04:53:00
10:53 PM,84.0,17.1,8,29.82,10.0,Calm,Calm,-,N/A,,Clear,0,2013-05-26 05:53:00
11:53 PM,81.0,19.9,10,29.82,10.0,Calm,Calm,-,N/A,,Clear,0,2013-05-26 06:53:00